Vorticity
4 5 6 8 9 11 12 12 11 10 9 8 8 7 7 6 6 6 6 5 5 5 5 5 5 5 5 5 5 5 7 9 9 10 11 10 7 5 5 5 5 4 5 5 6 6 5 6 4 5 3 2 5 4 3 1 3 2 3 5 3 5 2 3 -0 -3 5 4 17 20 10 14 13 15 11 2 5 7 5 3 9 7 1 7 8 7 6 6
5 4 4 4 4 6 7 10 11 12 12 11 10 9 8 8 7 7 7 7 6 6 5 5 5 5 5 5 5 4 5 7 8 9 10 11 10 9 7 5 5 5 5 4 5 6 6 7 6 6 5 3 4 4 3 -1 2 1 3 6 3 5 3 4 1 2 8 -0 8 17 14 16 14 18 16 9 8 6 8 5 6 6 3 7 8 8 6 6
5 5 5 5 4 4 4 5 6 8 10 12 12 11 10 9 8 8 8 8 7 7 7 6 6 5 4 4 5 3 4 5 6 8 10 10 10 11 10 7 6 6 6 5 4 5 6 7 7 7 6 5 4 4 4 0 -0 0 3 4 3 6 4 5 3 6 12 2 1 7 17 23 16 16 13 12 7 2 6 6 6 4 4 7 5 7 5 6
5 5 5 5 5 5 5 4 4 4 5 7 9 12 13 12 10 9 8 8 8 8 8 7 7 6 6 5 5 4 3 3 3 6 8 9 10 12 11 9 8 7 7 6 5 5 5 6 6 7 7 7 7 5 5 4 2 1 2 1 2 5 2 5 6 1 -0 -0 1 1 11 19 19 23 12 4 3 1 6 5 5 5 6 7 5 6 5 6
5 5 5 5 5 5 5 5 5 5 4 4 4 6 9 12 13 11 10 9 8 8 9 9 9 8 8 6 5 5 4 4 3 4 5 6 8 10 11 11 10 8 8 7 6 5 5 4 4 5 6 7 7 6 5 5 4 2 3 3 3 5 2 4 8 2 -4 -1 3 2 7 9 14 28 17 6 7 5 5 3 4 4 5 7 6 5 4 5
6 6 6 6 6 6 5 5 5 5 5 5 4 3 4 6 9 12 12 11 10 9 8 9 10 9 9 8 7 6 6 5 4 4 3 3 5 8 10 11 11 10 9 7 7 6 5 5 5 5 5 5 6 6 7 7 7 5 4 4 5 6 5 8 8 3 1 4 6 3 4 5 8 20 18 8 8 7 1 2 4 2 4 7 6 7 5 5
8 8 8 8 8 7 6 6 5 5 5 5 5 4 4 4 4 7 9 11 11 10 9 9 10 10 10 10 8 7 7 7 5 5 3 3 4 5 7 9 11 11 10 9 8 7 6 6 6 5 5 7 6 5 5 5 6 7 6 5 6 6 3 6 6 1 1 1 2 2 0 5 7 11 21 14 8 8 1 3 7 1 4 7 6 7 7 7
8 8 8 9 9 10 9 8 7 6 6 6 6 5 5 5 3 3 5 7 9 10 10 9 9 10 10 10 10 10 8 7 6 6 5 3 4 4 5 7 10 10 10 10 9 9 9 9 8 7 8 7 5 5 5 5 5 6 6 5 5 7 4 3 5 4 2 -4 -4 2 -0 5 6 6 23 19 4 4 6 12 10 2 6 9 7 7 7 8
8 8 8 9 9 10 10 10 10 8 7 6 6 6 6 5 5 4 4 3 5 7 9 9 9 10 10 11 11 11 10 8 7 6 6 4 4 4 4 5 7 8 10 11 10 10 10 9 9 8 6 4 2 2 4 6 7 5 2 2 2 5 5 3 5 5 4 2 1 5 3 3 4 6 18 14 7 14 17 13 6 4 9 8 8 7 7 7
10 10 9 9 9 9 9 10 11 11 9 7 6 7 7 6 6 5 4 3 4 4 5 7 8 8 10 10 11 11 11 10 7 7 7 6 6 5 4 4 4 5 7 10 11 9 8 7 6 6 5 5 4 3 4 6 6 6 6 8 7 7 7 5 7 8 6 6 4 5 6 4 -0 5 15 11 13 18 9 1 1 5 9 8 8 6 6 7
11 12 12 11 11 10 9 9 10 11 11 10 8 7 7 7 7 6 5 4 4 4 3 4 6 6 7 9 10 11 11 11 8 9 9 7 7 6 5 4 4 4 4 7 8 9 9 8 8 8 9 10 9 6 7 7 6 9 11 14 15 13 13 10 7 10 10 7 6 4 5 5 -2 0 11 11 11 8 -3 -2 4 4 6 8 7 5 6 7
12 13 14 14 13 12 11 10 9 9 10 11 11 9 8 8 8 7 6 5 5 4 3 4 4 4 5 6 8 9 10 11 9 9 12 9 7 8 7 5 5 4 4 4 5 8 9 9 9 8 9 10 10 8 6 4 4 5 5 6 10 10 12 12 5 5 7 5 7 5 3 7 3 -1 4 6 7 7 2 4 6 4 5 7 7 5 6 6
12 14 15 15 15 14 13 11 10 10 9 9 12 12 10 8 8 8 8 7 6 5 4 4 3 3 3 4 6 7 7 10 9 8 12 12 9 9 8 7 6 5 5 4 4 5 7 9 10 8 6 6 8 11 10 9 9 8 5 4 6 5 8 13 7 4 5 5 8 7 4 4 3 1 1 2 5 6 4 4 6 7 5 5 7 7 6 6
13 14 15 15 14 15 15 14 12 12 10 9 10 12 13 11 9 9 9 8 7 7 6 4 4 3 4 4 4 5 5 7 8 8 11 11 10 10 10 8 7 7 6 5 4 5 6 7 9 11 10 8 7 9 12 13 14 12 9 11 11 7 6 10 10 7 5 6 10 8 6 6 5 3 1 3 5 3 3 4 6 7 5 4 6 7 6 6
14 15 15 15 13 14 15 16 15 13 12 13 12 11 13 13 11 10 9 9 9 8 7 5 5 5 4 6 4 3 4 5 5 6 8 10 9 9 11 10 8 8 8 7 5 4 5 5 6 10 12 12 8 7 9 10 12 13 10 11 15 12 7 4 5 8 6 5 8 7 7 10 9 5 4 6 3 2 5 5 5 6 6 5 5 5 5 6
15 16 16 15 13 13 13 15 17 16 13 13 14 13 12 13 13 12 10 10 10 9 9 7 7 6 5 7 6 4 4 4 4 4 5 7 8 8 9 10 9 9 9 8 7 5 4 5 5 6 7 10 10 7 7 8 11 14 12 10 10 8 6 4 3 5 5 5 7 7 8 12 10 8 11 11 7 8 8 5 5 7 7 6 4 4 5 6
17 16 15 13 13 14 14 15 17 18 16 12 12 13 13 14 13 14 13 11 11 10 10 9 9 8 6 7 6 5 5 4 5 4 4 5 5 6 7 9 9 9 10 9 9 7 7 6 5 4 3 5 8 7 9 11 13 15 15 13 8 3 3 5 4 3 3 3 6 7 8 13 12 10 10 9 12 14 9 5 5 7 7 6 4 6 7 8
19 17 14 13 13 13 14 15 15 16 16 15 15 12 12 14 13 13 13 13 12 10 10 10 10 8 8 8 5 5 6 5 6 5 4 4 4 4 5 6 8 8 9 9 9 9 9 8 6 4 3 4 6 10 14 13 10 8 7 8 7 3 -0 2 3 7 7 3 6 6 5 9 10 11 13 13 14 13 9 8 9 12 10 5 6 6 5 7
19 18 16 14 13 13 13 15 14 13 12 13 17 16 12 11 12 12 12 13 13 11 10 9 11 10 9 9 7 7 8 6 6 7 6 4 4 4 3 4 5 6 7 8 9 9 8 8 8 8 8 7 7 9 11 9 6 3 3 5 7 6 3 -0 -4 2 8 7 10 7 2 6 1 0 11 14 13 11 8 10 11 11 9 5 5 5 3 4
19 18 18 15 15 16 15 14 14 15 12 12 18 20 15 12 11 12 12 12 12 12 12 10 11 11 11 12 10 10 10 8 6 6 7 6 5 3 4 4 3 4 5 6 8 9 9 8 9 12 12 9 6 5 5 5 6 5 8 11 12 15 16 9 -1 0 8 8 9 8 4 5 -6 -10 4 9 13 16 9 8 8 4 2 2 3 6 7 7
19 18 18 16 16 18 19 17 15 16 15 15 20 21 18 16 12 11 12 12 12 11 11 12 10 9 10 10 10 10 10 9 8 7 6 7 7 5 4 4 4 4 3 3 5 6 8 8 9 11 12 11 8 5 3 3 4 4 6 8 9 16 18 13 5 1 5 6 6 8 7 5 -7 -10 1 3 7 18 14 9 11 9 4 2 3 7 10 9
19 19 18 16 17 19 21 20 18 17 15 14 19 19 17 18 15 11 11 11 12 11 9 11 12 11 10 8 9 10 10 10 10 9 8 6 7 7 6 5 4 4 4 4 3 4 5 6 8 8 9 12 11 8 5 2 3 4 5 5 6 12 16 18 10 -3 -1 3 2 3 5 6 -1 -7 -2 -0 1 10 12 6 9 12 8 5 5 5 5 7
19 18 18 18 18 18 20 21 20 18 16 15 19 21 19 18 17 15 13 12 13 13 11 10 10 11 11 10 10 8 9 10 9 10 10 7 7 6 7 6 5 5 4 4 4 3 3 3 5 6 7 9 11 12 9 4 3 3 5 6 6 8 17 25 16 3 4 3 1 2 3 4 5 1 -3 0 5 5 7 5 4 11 12 10 6 1 3 11
20 19 19 19 19 18 18 19 20 19 18 18 19 22 21 18 19 19 17 15 14 13 12 12 12 12 12 12 12 9 8 9 8 9 11 10 10 8 7 7 6 7 6 6 6 4 2 3 5 4 4 5 7 10 11 9 6 3 3 7 8 9 18 22 9 5 10 2 -1 6 7 1 2 4 -2 4 9 3 6 6 3 11 14 9 7 6 8 11
20 20 20 20 18 19 18 17 19 19 17 16 15 17 19 19 20 18 17 17 17 15 13 14 14 12 13 13 13 12 11 9 6 7 10 9 9 11 11 9 7 7 8 8 8 6 4 4 5 4 4 4 5 6 9 11 9 5 3 5 9 10 16 21 8 4 11 1 -5 2 4 1 1 1 2 10 4 -7 4 6 2 13 12 3 6 10 9 6
20 20 21 21 18 18 18 18 17 17 18 17 14 14 15 18 20 18 17 18 19 18 16 16 16 15 15 14 14 12 11 12 10 9 10 8 7 8 10 10 9 8 7 8 8 8 7 7 7 6 5 4 4 4 5 9 9 8 7 5 9 11 11 19 11 2 8 4 3 8 4 1 3 2 4 5 -7 -9 5 5 4 17 12 5 8 9 8 9
20 22 23 21 18 17 17 19 19 19 20 17 14 14 14 16 18 19 18 16 19 22 20 18 18 20 19 13 14 16 16 15 13 14 13 9 7 7 7 8 9 8 6 6 6 6 6 7 8 8 8 7 6 5 3 5 7 9 12 7 6 6 5 15 11 -0 -0 -3 1 10 7 4 4 6 7 1 -6 -3 3 4 14 20 14 8 6 4 5 9
20 25 26 21 17 17 17 19 20 20 18 14 12 13 13 12 14 17 17 16 19 21 19 19 18 18 19 17 16 16 16 13 11 15 15 11 12 12 10 9 8 9 9 7 5 5 4 4 5 5 7 7 5 7 6 5 4 6 12 12 7 5 3 8 9 4 3 -3 -5 -2 -2 -0 -2 -0 4 1 1 2 -3 6 18 15 6 -1 -2 3 5 5
14 21 26 23 17 16 19 20 17 14 14 14 13 12 13 14 14 16 17 16 19 19 16 17 17 15 16 20 20 15 13 11 10 16 16 11 12 14 14 13 10 9 11 10 8 7 6 4 4 3 4 6 5 7 7 7 5 2 5 9 10 9 3 3 5 6 7 1 -3 -3 -4 -3 -5 -6 -4 -4 1 2 -2 6 14 11 -6 -19 -5 12 7 4
5 13 22 24 21 20 20 17 13 10 11 12 13 13 14 17 18 20 22 15 12 15 15 15 14 14 15 15 17 16 16 15 12 16 17 13 14 16 15 16 15 12 9 8 10 12 11 9 8 4 1 4 4 6 8 8 8 5 1 3 8 11 8 5 3 4 8 6 2 1 1 2 3 0 -2 1 6 7 7 10 13 5 -17 -24 5 18 4 4
-1 6 19 22 21 21 17 12 10 10 11 12 14 15 17 21 20 17 18 12 8 10 11 12 13 13 15 13 13 14 17 18 16 16 15 12 16 18 15 12 12 13 10 6 5 8 11 11 14 12 8 6 2 3 6 6 8 9 4 1 2 6 9 10 7 3 3 6 4 2 2 4 6 2 -1 3 8 6 7 12 10 0 -13 -4 19 16 4 9
1 2 18 24 19 16 12 9 6 6 11 13 14 16 18 20 13 7 9 7 9 13 7 5 11 14 13 12 13 13 12 13 13 16 16 13 14 14 13 12 9 11 12 8 6 7 7 9 12 13 14 13 8 6 5 3 4 6 8 9 4 2 3 5 9 7 4 8 9 1 -3 0 2 2 0 2 6 5 6 10 8 4 4 11 17 10 7 11
8 3 15 24 22 16 9 6 7 8 12 15 15 14 13 11 5 6 12 2 -4 5 7 6 10 13 13 11 12 13 13 11 9 15 17 15 15 14 14 18 17 16 15 11 12 12 8 7 7 7 11 14 12 13 15 13 9 5 5 9 7 5 5 2 2 5 5 12 18 12 3 -4 -5 1 2 1 6 7 5 7 6 7 9 9 9 10 9 7
13 7 12 22 25 22 15 8 8 9 13 16 15 11 10 11 6 7 13 7 -0 -0 7 18 16 12 15 13 12 13 14 16 16 17 15 10 12 14 14 16 16 17 17 14 15 15 10 9 9 7 7 7 3 2 7 10 14 15 12 10 9 8 10 8 6 6 5 7 16 21 14 -0 -4 4 4 -1 2 5 7 10 9 9 10 7 6 11 11 4
12 10 15 20 21 23 22 17 13 13 16 18 15 11 11 13 10 7 4 10 16 7 6 20 14 5 12 12 10 13 11 13 17 18 16 12 11 9 10 12 11 12 12 10 12 16 16 15 12 6 5 7 5 1 1 1 5 12 11 10 12 9 9 11 11 11 10 7 8 10 11 7 7 12 11 5 2 2 4 5 2 1 4 7 9 12 11 4
11 11 16 18 18 19 20 19 17 17 19 18 14 13 13 12 13 10 0 -1 8 3 2 15 9 1 8 9 11 16 7 2 10 13 12 15 16 11 10 11 10 11 11 7 7 11 13 16 15 11 11 14 14 14 14 13 12 14 13 13 14 11 7 7 10 11 11 12 13 10 9 11 15 21 25 29 31 29 24 18 17 16 11 11 12 12 11 7
11 10 13 16 19 18 16 16 14 14 16 15 15 14 14 14 13 11 6 1 3 6 6 10 13 11 7 2 7 10 3 2 12 14 8 8 12 11 11 13 10 10 11 9 9 10 9 13 16 16 17 16 13 14 14 8 1 -0 3 6 7 11 12 7 5 6 5 7 11 12 12 17 27 32 29 29 29 28 23 18 19 22 21 22 21 17 11 8
12 11 12 16 21 21 18 16 12 12 13 12 13 13 14 17 15 14 14 6 4 11 7 -0 9 17 9 2 2 -1 -1 6 12 11 7 5 8 8 7 10 12 11 10 9 10 11 10 11 14 16 17 17 13 13 14 11 3 -3 1 5 5 10 19 18 11 7 7 6 7 10 12 19 26 17 6 7 3 -0 5 5 0 2 13 23 25 23 16 8
11 10 10 14 19 24 24 19 15 16 15 14 17 15 14 16 14 14 17 11 4 3 -1 -3 3 6 5 9 10 5 3 3 -0 0 6 8 9 11 8 6 9 11 12 13 11 11 12 10 11 14 15 15 14 11 10 13 17 19 19 18 14 8 6 8 8 7 9 10 14 16 13 15 15 2 -3 3 -0 -4 -1 -1 -3 -2 4 12 18 22 22 15
10 9 11 12 13 18 23 22 21 20 15 15 20 17 16 18 16 14 17 20 16 2 -2 5 4 -2 1 7 11 14 11 5 1 3 7 8 8 11 11 9 9 10 13 15 13 13 14 10 9 13 13 12 18 19 11 7 13 19 16 11 12 7 -1 1 5 4 3 4 8 9 6 8 10 5 6 6 2 2 -2 -7 -4 -2 -3 5 13 14 21 23
9 10 14 18 15 8 9 14 16 16 13 14 16 14 14 15 14 16 15 16 18 10 6 10 4 -1 7 8 9 12 7 5 14 16 13 13 14 14 14 13 13 14 14 15 16 16 16 12 9 11 9 7 14 16 12 12 15 12 6 1 1 1 1 6 6 2 1 1 2 4 3 4 3 2 7 8 7 7 3 -0 0 -5 -6 5 12 10 14 24
8 10 13 19 19 7 4 10 10 11 12 11 12 15 15 13 14 18 16 13 15 12 10 12 9 7 10 9 8 8 4 4 14 19 16 15 15 15 17 16 15 16 15 12 13 15 16 16 14 10 5 6 10 9 6 10 13 9 7 8 7 7 10 13 11 9 9 9 13 17 10 -1 -6 -5 2 6 8 8 5 7 8 -1 -7 -5 -0 5 9 13
5 8 9 11 14 9 8 12 10 10 11 9 11 13 11 10 14 15 15 16 17 15 12 14 17 17 16 15 10 8 12 11 8 11 14 14 13 12 14 15 14 16 18 15 12 12 11 15 17 12 7 6 6 3 2 5 7 7 10 15 18 16 13 12 12 14 14 11 13 22 22 9 -6 -12 -9 -4 4 11 12 11 14 13 5 -3 -4 2 8 6
4 5 6 6 8 8 9 12 10 9 9 8 11 12 9 9 11 9 9 13 15 14 13 13 14 14 15 19 15 9 11 12 7 7 10 10 12 11 9 11 11 13 17 17 16 16 13 12 14 13 11 11 8 1 -1 -0 3 5 7 12 18 16 11 10 10 9 9 5 2 9 19 20 8 -5 -11 -15 -12 7 19 9 4 9 6 2 3 1 4 8
6 6 6 6 7 7 8 12 12 11 10 9 8 9 11 11 12 11 10 10 11 11 11 10 10 10 11 14 14 10 8 9 9 8 7 6 8 8 7 8 8 8 12 14 11 14 16 13 14 13 9 10 11 8 3 -1 -2 2 7 11 16 16 14 12 8 7 6 4 4 6 10 17 21 17 10 -4 -14 1 20 13 1 4 1 -4 2 2 -3 1
8 9 10 9 9 10 10 9 10 10 11 10 7 9 11 7 7 11 11 9 11 10 9 9 8 8 10 9 9 10 10 9 8 5 5 6 6 6 6 7 7 6 7 11 9 10 13 14 15 16 12 8 6 5 5 2 -3 -2 1 6 10 15 20 16 7 4 5 4 5 6 11 18 17 15 16 10 -2 -3 9 13 7 6 5 -1 0 1 -8 -8
15 13 11 10 10 12 12 9 8 6 6 8 8 10 12 8 8 11 9 9 10 9 8 9 8 7 8 8 6 8 9 9 9 7 6 6 5 6 7 6 8 7 5 8 9 8 9 10 12 15 16 15 10 4 1 -0 -0 0 -1 -0 1 5 16 20 12 5 5 7 5 3 12 18 7 3 8 7 4 2 0 5 8 6 6 2 -4 -2 -0 3
20 16 13 13 12 11 10 10 11 10 10 11 9 9 10 10 11 11 10 10 11 10 9 9 10 8 8 9 8 8 8 8 9 9 8 8 7 6 7 6 5 6 5 5 6 5 6 7 8 9 11 15 17 15 10 3 0 1 -0 -0 -2 -5 1 10 12 8 5 7 8 5 11 16 8 7 10 0 1 11 3 -9 -5 3 4 1 -4 -1 11 18
16 17 17 16 16 16 14 12 14 14 14 15 15 14 13 12 11 11 10 10 11 12 10 8 9 8 7 9 9 8 8 7 6 7 7 7 6 5 6 6 5 6 6 6 4 4 4 5 6 6 5 6 9 12 16 15 11 8 4 2 2 -1 -2 1 4 6 4 6 10 7 5 12 13 10 10 2 -3 12 16 0 2 16 9 -1 4 5 5 11
9 12 13 11 11 15 16 14 16 18 17 18 18 18 19 18 16 15 14 13 12 13 12 12 12 11 9 10 9 9 11 10 10 11 9 9 9 9 9 9 8 9 10 11 10 8 6 5 6 6 3 3 5 5 7 11 13 14 13 10 7 6 4 4 4 5 3 4 8 6 1 6 12 8 5 5 -2 5 14 1 8 41 30 -5 1 12 1 1
6 7 11 9 6 10 13 11 12 15 16 16 17 17 18 20 20 21 21 19 17 16 16 15 15 14 14 14 13 13 13 13 14 14 13 13 13 11 12 13 14 14 12 13 13 13 12 10 9 8 5 4 10 11 6 5 7 8 12 16 14 11 9 7 6 7 8 7 5 6 4 4 9 8 1 1 1 6 11 -13 -17 33 50 13 3 14 4 -2
5 4 8 11 6 6 10 9 7 10 11 11 12 12 14 16 18 21 24 24 22 20 19 18 16 17 18 18 17 16 16 16 16 15 14 15 14 15 17 19 20 20 19 19 19 18 18 17 15 16 12 8 14 18 13 10 9 4 4 10 12 12 12 10 9 6 8 10 9 10 9 4 6 9 2 -1 -4 -1 13 -0 -29 -10 23 17 4 2 -1 -2
Height
5872 5872 5871 5870 5870 5869 5869 5869 5869 5868 5868 5868 5868 5868 5868 5868 5868 5869 5869 5869 5870 5871 5871 5872 5872 5873 5873 5874 5874 5875 5875 5875 5875 5876 5877 5878 5879 5880 5882 5883 5883 5884 5885 5886 5887 5888 5889 5890 5892 5893 5894 5895 5896 5898 5899 5900 5900 5900 5901 5901 5902 5902 5901 5902 5904 5903 5901 5900 5900 5901 5901 5902 5902 5902 5903 5905 5907 5907 5908 5910 5913 5915 5914 5913 5914 5914 5915 5916
5870 5870 5869 5869 5868 5868 5867 5867 5866 5866 5866 5865 5865 5865 5865 5865 5865 5866 5866 5867 5867 5868 5869 5870 5870 5871 5871 5872 5872 5873 5873 5873 5873 5874 5874 5876 5877 5878 5880 5881 5881 5883 5884 5884 5885 5887 5888 5889 5891 5892 5893 5894 5896 5897 5898 5899 5900 5900 5900 5901 5901 5901 5901 5902 5903 5903 5902 5901 5902 5902 5902 5903 5902 5902 5903 5906 5907 5908 5910 5911 5912 5914 5914 5913 5914 5914 5915 5916
5868 5867 5867 5866 5866 5865 5865 5865 5864 5864 5863 5863 5863 5863 5862 5863 5863 5863 5863 5864 5864 5865 5866 5867 5868 5868 5869 5870 5870 5871 5871 5871 5871 5872 5873 5875 5875 5876 5878 5879 5880 5881 5882 5883 5884 5885 5886 5888 5890 5890 5891 5893 5895 5896 5898 5898 5899 5899 5900 5901 5900 5900 5900 5902 5903 5903 5902 5902 5903 5903 5903 5904 5904 5904 5905 5906 5908 5908 5910 5911 5912 5914 5913 5913 5914 5914 5915 5916
5865 5865 5864 5864 5863 5863 5862 5862 5862 5862 5861 5860 5860 5860 5860 5860 5860 5860 5860 5861 5861 5862 5863 5864 5865 5866 5866 5867 5868 5869 5869 5868 5869 5871 5871 5872 5873 5875 5876 5877 5878 5879 5880 5881 5882 5883 5885 5887 5888 5889 5890 5892 5894 5895 5896 5897 5898 5898 5898 5899 5899 5899 5901 5901 5902 5903 5902 5902 5903 5904 5905 5905 5905 5905 5906 5906 5908 5908 5909 5910 5911 5913 5912 5912 5913 5914 5915 5917
5861 5861 5861 5861 5860 5860 5859 5859 5859 5859 5858 5858 5858 5857 5857 5857 5857 5857 5858 5858 5858 5859 5860 5861 5862 5863 5864 5864 5865 5866 5866 5866 5867 5869 5870 5870 5871 5872 5873 5875 5876 5877 5878 5879 5880 5881 5883 5884 5886 5888 5889 5890 5892 5894 5894 5895 5896 5896 5897 5898 5898 5900 5901 5901 5901 5902 5902 5902 5903 5904 5905 5906 5906 5905 5906 5907 5907 5907 5908 5909 5911 5911 5911 5912 5913 5914 5915 5917
5858 5857 5857 5857 5857 5856 5856 5856 5856 5855 5855 5855 5855 5855 5854 5854 5854 5855 5855 5855 5855 5856 5857 5858 5859 5860 5861 5861 5863 5864 5864 5864 5865 5867 5868 5868 5869 5870 5871 5872 5874 5875 5876 5877 5878 5879 5881 5882 5885 5886 5887 5888 5890 5892 5893 5894 5894 5894 5896 5897 5898 5899 5900 5900 5901 5902 5902 5902 5903 5904 5905 5906 5906 5906 5906 5907 5907 5907 5908 5909 5910 5911 5911 5912 5913 5914 5915 5916
5854 5853 5853 5853 5852 5852 5852 5852 5852 5852 5852 5851 5851 5851 5851 5851 5852 5852 5852 5852 5852 5853 5853 5854 5855 5857 5857 5858 5860 5861 5862 5861 5862 5864 5865 5866 5867 5868 5869 5870 5872 5873 5873 5875 5876 5877 5879 5881 5883 5884 5885 5887 5888 5889 5891 5892 5893 5893 5895 5896 5897 5898 5899 5899 5901 5902 5902 5902 5903 5904 5904 5905 5906 5907 5907 5908 5908 5907 5908 5908 5909 5911 5912 5912 5913 5914 5915 5916
5850 5849 5848 5848 5848 5848 5847 5847 5847 5848 5848 5847 5847 5847 5847 5848 5848 5849 5849 5849 5849 5850 5850 5851 5852 5853 5854 5855 5857 5858 5859 5858 5858 5860 5862 5863 5864 5865 5867 5868 5869 5870 5871 5873 5874 5876 5878 5879 5880 5882 5883 5884 5885 5886 5888 5891 5892 5892 5893 5893 5895 5896 5897 5898 5900 5901 5902 5903 5904 5904 5904 5905 5906 5907 5907 5908 5908 5908 5907 5907 5909 5911 5911 5912 5913 5914 5915 5916
5846 5845 5844 5843 5843 5842 5842 5842 5842 5843 5843 5843 5843 5843 5843 5844 5844 5845 5846 5846 5846 5847 5848 5848 5849 5850 5851 5852 5854 5855 5856 5855 5854 5856 5859 5860 5862 5863 5864 5866 5867 5868 5869 5871 5872 5874 5875 5876 5878 5879 5880 5881 5881 5883 5887 5890 5890 5890 5890 5891 5892 5894 5896 5897 5899 5901 5901 5903 5904 5904 5904 5905 5906 5907 5907 5907 5908 5908 5907 5908 5910 5911 5911 5912 5913 5914 5915 5916
5841 5840 5839 5838 5837 5837 5837 5836 5836 5837 5837 5837 5838 5838 5839 5839 5840 5841 5842 5842 5843 5844 5844 5845 5846 5847 5848 5849 5850 5852 5853 5853 5851 5852 5856 5858 5860 5861 5862 5864 5865 5865 5867 5869 5871 5871 5872 5873 5875 5875 5877 5879 5880 5882 5885 5888 5888 5888 5889 5890 5892 5893 5894 5896 5899 5900 5901 5902 5903 5903 5904 5905 5906 5906 5907 5907 5909 5908 5908 5909 5911 5911 5912 5912 5913 5913 5914 5916
5835 5834 5833 5832 5832 5831 5831 5831 5831 5831 5831 5831 5832 5833 5833 5834 5835 5836 5837 5838 5839 5840 5841 5842 5843 5844 5845 5846 5847 5849 5850 5851 5849 5850 5853 5856 5857 5858 5859 5861 5862 5863 5865 5867 5868 5868 5869 5871 5873 5874 5876 5878 5880 5881 5883 5885 5887 5887 5889 5891 5891 5891 5892 5894 5898 5899 5900 5902 5902 5903 5904 5904 5906 5907 5907 5908 5909 5909 5908 5909 5910 5911 5912 5912 5913 5913 5914 5915
5830 5829 5828 5827 5826 5825 5825 5825 5825 5825 5825 5825 5825 5826 5827 5828 5830 5831 5832 5833 5835 5836 5837 5839 5840 5841 5842 5843 5844 5845 5846 5848 5848 5848 5850 5853 5854 5855 5857 5858 5859 5861 5862 5864 5865 5866 5867 5869 5871 5873 5874 5876 5877 5879 5881 5882 5885 5887 5888 5889 5890 5890 5889 5891 5896 5898 5899 5901 5902 5903 5903 5903 5905 5906 5907 5909 5909 5909 5909 5909 5910 5911 5912 5912 5912 5913 5914 5915
5824 5822 5821 5821 5820 5819 5819 5818 5818 5818 5818 5818 5819 5820 5821 5822 5824 5825 5826 5828 5830 5832 5833 5835 5836 5838 5839 5840 5841 5842 5843 5845 5846 5846 5848 5849 5851 5852 5854 5855 5857 5858 5860 5861 5862 5864 5865 5867 5869 5870 5872 5873 5875 5878 5880 5881 5883 5885 5886 5888 5888 5889 5888 5888 5892 5895 5898 5900 5901 5902 5902 5903 5904 5906 5907 5909 5909 5909 5909 5910 5910 5911 5912 5912 5912 5912 5913 5914
5817 5816 5815 5814 5813 5813 5812 5812 5812 5812 5812 5812 5813 5813 5814 5816 5818 5819 5821 5823 5825 5827 5829 5831 5832 5834 5835 5836 5838 5839 5840 5842 5843 5844 5845 5847 5848 5849 5851 5853 5854 5855 5857 5858 5859 5861 5863 5865 5867 5869 5870 5872 5874 5877 5878 5879 5882 5883 5885 5887 5888 5888 5888 5887 5888 5893 5897 5899 5900 5901 5901 5902 5904 5905 5907 5908 5909 5909 5909 5910 5910 5911 5912 5912 5912 5912 5913 5913
5811 5810 5809 5808 5807 5806 5805 5805 5805 5805 5806 5806 5806 5807 5808 5810 5812 5813 5815 5817 5819 5821 5824 5826 5828 5829 5831 5832 5834 5836 5837 5839 5840 5841 5843 5844 5845 5846 5848 5850 5851 5852 5854 5855 5857 5859 5860 5863 5865 5867 5869 5870 5872 5874 5876 5878 5879 5881 5883 5885 5887 5887 5887 5887 5886 5890 5895 5896 5898 5899 5900 5902 5903 5904 5906 5907 5908 5909 5909 5909 5910 5911 5912 5912 5912 5912 5912 5913
5805 5804 5803 5802 5800 5799 5798 5798 5799 5799 5800 5800 5800 5801 5802 5804 5806 5808 5809 5812 5814 5816 5819 5822 5823 5825 5826 5827 5830 5832 5834 5835 5837 5838 5840 5841 5843 5844 5845 5847 5849 5850 5851 5853 5854 5856 5858 5861 5863 5865 5866 5868 5870 5872 5874 5876 5877 5879 5880 5882 5885 5886 5886 5887 5886 5888 5891 5893 5895 5897 5899 5901 5902 5903 5904 5905 5906 5908 5909 5909 5909 5910 5911 5911 5912 5912 5913 5913
5799 5798 5796 5795 5793 5792 5791 5792 5792 5792 5793 5794 5794 5795 5797 5798 5800 5802 5804 5806 5808 5811 5814 5816 5818 5820 5822 5823 5825 5828 5830 5831 5833 5835 5837 5838 5840 5841 5843 5844 5846 5847 5848 5850 5851 5853 5856 5858 5860 5862 5863 5866 5868 5870 5872 5874 5875 5876 5877 5879 5881 5883 5884 5886 5887 5887 5890 5892 5894 5896 5899 5901 5901 5902 5903 5904 5905 5906 5908 5909 5909 5910 5910 5911 5911 5912 5912 5913
5793 5791 5789 5788 5787 5785 5785 5785 5786 5786 5786 5787 5788 5790 5791 5793 5794 5797 5799 5800 5803 5806 5809 5810 5813 5815 5817 5818 5821 5823 5825 5828 5829 5831 5833 5835 5837 5838 5840 5841 5843 5844 5845 5847 5849 5851 5853 5855 5857 5859 5861 5864 5866 5869 5871 5872 5872 5872 5873 5876 5878 5879 5880 5883 5885 5887 5889 5891 5893 5895 5898 5900 5900 5901 5902 5903 5904 5905 5907 5909 5909 5909 5910 5910 5911 5911 5911 5912
5787 5784 5783 5781 5779 5778 5778 5779 5779 5779 5780 5781 5782 5784 5785 5787 5789 5792 5793 5795 5797 5800 5803 5805 5808 5810 5812 5814 5817 5820 5821 5824 5826 5827 5829 5832 5834 5835 5837 5838 5840 5842 5843 5845 5847 5848 5850 5852 5854 5857 5860 5863 5865 5867 5868 5868 5869 5870 5871 5873 5876 5878 5879 5880 5882 5884 5886 5889 5891 5894 5896 5897 5899 5900 5901 5903 5904 5905 5906 5908 5909 5909 5910 5910 5911 5911 5911 5911
5780 5778 5776 5774 5772 5771 5771 5772 5772 5773 5774 5775 5776 5778 5779 5781 5785 5787 5788 5790 5792 5795 5798 5801 5803 5805 5808 5811 5814 5815 5816 5819 5821 5823 5825 5828 5830 5832 5834 5835 5837 5839 5841 5843 5845 5846 5847 5849 5853 5856 5858 5860 5862 5864 5865 5864 5866 5868 5870 5873 5876 5877 5878 5879 5880 5881 5882 5884 5887 5891 5893 5895 5897 5898 5900 5902 5903 5904 5905 5906 5907 5908 5909 5910 5910 5910 5910 5911
5774 5771 5769 5768 5766 5765 5765 5765 5766 5767 5768 5769 5770 5772 5773 5776 5779 5781 5783 5785 5787 5790 5793 5795 5798 5801 5804 5806 5808 5810 5812 5815 5817 5819 5821 5824 5826 5828 5830 5833 5835 5836 5838 5840 5842 5843 5845 5848 5851 5853 5855 5856 5858 5861 5862 5862 5863 5865 5869 5872 5875 5877 5878 5879 5880 5880 5879 5880 5883 5886 5889 5892 5894 5896 5898 5900 5902 5903 5904 5904 5905 5906 5907 5908 5909 5910 5910 5910
5768 5765 5763 5761 5760 5759 5759 5759 5760 5761 5762 5763 5764 5766 5768 5771 5773 5775 5778 5781 5783 5786 5788 5790 5793 5796 5799 5801 5802 5805 5808 5810 5812 5814 5817 5820 5822 5824 5827 5830 5832 5833 5835 5837 5839 5841 5844 5847 5849 5850 5852 5853 5855 5857 5859 5860 5860 5863 5866 5870 5872 5875 5877 5878 5878 5877 5876 5877 5879 5882 5885 5889 5891 5894 5896 5898 5900 5901 5902 5903 5904 5905 5906 5907 5908 5909 5909 5910
5762 5760 5758 5756 5755 5754 5754 5754 5755 5756 5757 5758 5759 5761 5763 5765 5768 5770 5774 5776 5778 5781 5784 5786 5788 5791 5794 5796 5798 5800 5803 5806 5808 5810 5813 5816 5818 5820 5823 5826 5828 5830 5832 5834 5836 5839 5842 5845 5846 5847 5849 5851 5852 5854 5857 5858 5858 5860 5864 5868 5870 5873 5875 5876 5876 5875 5875 5875 5876 5879 5883 5885 5888 5890 5893 5896 5898 5899 5900 5902 5903 5904 5905 5906 5907 5908 5908 5909
5757 5755 5753 5751 5750 5750 5750 5750 5751 5752 5753 5754 5755 5756 5758 5761 5763 5766 5769 5771 5774 5776 5779 5782 5784 5786 5788 5790 5793 5796 5798 5802 5805 5807 5809 5811 5814 5817 5820 5822 5825 5827 5829 5831 5834 5836 5839 5841 5842 5844 5845 5847 5849 5851 5853 5855 5857 5858 5861 5865 5868 5871 5873 5874 5874 5875 5876 5875 5874 5877 5879 5881 5884 5887 5891 5894 5896 5897 5899 5900 5902 5903 5904 5905 5906 5907 5908 5908
5753 5750 5749 5747 5746 5746 5746 5746 5747 5748 5749 5750 5750 5752 5754 5756 5759 5762 5764 5767 5769 5771 5774 5777 5779 5781 5783 5786 5788 5791 5794 5798 5801 5802 5804 5807 5811 5813 5815 5818 5821 5823 5825 5828 5830 5833 5835 5837 5838 5841 5843 5845 5847 5849 5851 5853 5855 5856 5858 5863 5867 5869 5871 5873 5873 5875 5876 5873 5872 5874 5876 5878 5882 5886 5890 5892 5894 5896 5897 5898 5900 5901 5903 5904 5906 5907 5907 5908
5749 5746 5745 5744 5743 5743 5743 5743 5744 5745 5746 5746 5746 5748 5750 5753 5755 5758 5761 5763 5764 5767 5770 5772 5774 5776 5778 5781 5783 5786 5790 5794 5797 5798 5800 5803 5806 5809 5811 5813 5816 5818 5821 5823 5826 5830 5832 5833 5836 5838 5840 5842 5844 5846 5848 5850 5852 5854 5856 5861 5864 5866 5868 5870 5871 5873 5874 5872 5871 5872 5874 5876 5879 5882 5887 5889 5892 5894 5895 5897 5899 5900 5902 5903 5905 5906 5907 5907
5745 5743 5742 5741 5740 5740 5740 5740 5741 5742 5743 5743 5744 5746 5748 5750 5752 5755 5757 5759 5762 5764 5765 5767 5770 5771 5774 5777 5780 5783 5785 5789 5792 5794 5796 5799 5801 5804 5806 5809 5811 5813 5816 5819 5823 5826 5828 5830 5832 5834 5837 5839 5841 5844 5845 5847 5850 5852 5855 5857 5860 5862 5864 5866 5868 5869 5871 5871 5871 5871 5872 5874 5876 5880 5884 5887 5889 5891 5893 5896 5898 5899 5901 5902 5904 5905 5906 5907
5743 5741 5739 5738 5737 5737 5737 5738 5739 5739 5740 5741 5742 5743 5745 5747 5749 5752 5754 5756 5759 5760 5761 5763 5766 5768 5770 5773 5776 5778 5780 5784 5787 5789 5792 5795 5796 5800 5802 5804 5806 5809 5813 5817 5820 5822 5824 5825 5828 5830 5833 5835 5838 5840 5842 5844 5847 5850 5852 5854 5856 5859 5861 5863 5864 5867 5868 5868 5869 5870 5870 5872 5875 5879 5882 5884 5886 5888 5891 5895 5896 5898 5900 5900 5902 5904 5905 5906
5742 5739 5738 5736 5736 5735 5735 5736 5737 5738 5738 5739 5740 5742 5743 5745 5747 5749 5751 5754 5756 5757 5759 5761 5763 5765 5767 5769 5772 5773 5776 5780 5783 5785 5788 5790 5792 5794 5796 5799 5802 5805 5810 5813 5816 5819 5821 5823 5825 5828 5830 5832 5835 5837 5839 5841 5844 5846 5849 5850 5853 5855 5857 5859 5861 5864 5865 5866 5869 5870 5869 5871 5874 5877 5879 5881 5883 5887 5890 5894 5895 5896 5898 5899 5900 5902 5903 5904
5741 5739 5737 5735 5734 5734 5734 5735 5736 5737 5737 5738 5739 5740 5742 5743 5744 5746 5748 5751 5753 5755 5757 5759 5760 5762 5764 5766 5768 5770 5774 5777 5779 5781 5784 5785 5787 5789 5791 5794 5798 5801 5805 5809 5813 5815 5817 5820 5823 5826 5828 5830 5833 5835 5836 5838 5840 5842 5844 5847 5849 5851 5854 5856 5858 5860 5861 5864 5868 5868 5868 5869 5871 5874 5876 5880 5883 5886 5889 5893 5894 5895 5896 5898 5899 5901 5902 5903
5740 5738 5736 5735 5734 5733 5733 5734 5735 5736 5736 5737 5738 5739 5740 5741 5742 5743 5745 5748 5750 5752 5754 5756 5758 5759 5761 5763 5765 5768 5772 5774 5775 5777 5779 5781 5781 5782 5785 5789 5793 5797 5801 5805 5807 5809 5813 5816 5819 5822 5825 5827 5830 5832 5834 5836 5837 5839 5841 5843 5845 5847 5850 5852 5854 5857 5858 5862 5866 5867 5866 5868 5870 5872 5875 5879 5882 5885 5888 5891 5893 5894 5896 5897 5899 5899 5901 5902
5739 5737 5735 5734 5733 5733 5733 5734 5734 5735 5735 5736 5737 5738 5739 5739 5739 5740 5743 5745 5747 5749 5751 5753 5755 5757 5759 5761 5763 5766 5769 5770 5772 5773 5776 5776 5775 5777 5782 5786 5790 5794 5797 5800 5803 5805 5809 5811 5813 5817 5819 5822 5825 5828 5831 5833 5834 5836 5839 5841 5842 5844 5846 5848 5851 5854 5856 5861 5865 5865 5864 5865 5868 5871 5873 5877 5880 5883 5887 5889 5891 5892 5894 5896 5897 5898 5899 5900
5737 5736 5734 5733 5732 5732 5732 5733 5733 5734 5734 5735 5736 5737 5737 5737 5737 5739 5740 5741 5743 5745 5747 5750 5753 5754 5756 5758 5761 5763 5765 5767 5769 5770 5771 5769 5770 5776 5781 5784 5788 5790 5793 5796 5799 5802 5804 5805 5808 5812 5813 5817 5821 5824 5827 5829 5830 5833 5835 5837 5839 5841 5843 5846 5848 5851 5855 5859 5863 5864 5862 5862 5866 5870 5872 5875 5880 5882 5885 5887 5888 5889 5891 5893 5895 5896 5898 5899
5737 5735 5734 5732 5731 5731 5731 5731 5732 5732 5733 5734 5735 5735 5736 5737 5738 5738 5739 5739 5741 5742 5744 5748 5751 5752 5754 5756 5759 5761 5763 5765 5766 5766 5765 5765 5768 5774 5778 5781 5785 5786 5789 5792 5795 5798 5800 5802 5804 5806 5809 5813 5817 5819 5821 5823 5825 5828 5830 5833 5835 5838 5840 5844 5846 5849 5852 5856 5860 5861 5860 5860 5864 5870 5872 5874 5877 5879 5881 5883 5884 5885 5887 5890 5893 5894 5896 5897
5736 5735 5733 5731 5730 5730 5730 5730 5730 5731 5732 5733 5733 5735 5736 5737 5737 5738 5739 5740 5742 5743 5746 5748 5749 5751 5752 5754 5757 5759 5761 5762 5761 5760 5761 5763 5767 5772 5775 5779 5781 5782 5786 5789 5793 5796 5797 5798 5800 5802 5806 5811 5814 5815 5817 5819 5821 5823 5826 5828 5831 5834 5838 5841 5844 5846 5848 5850 5853 5856 5857 5859 5865 5870 5872 5873 5874 5875 5877 5879 5881 5883 5884 5886 5889 5892 5894 5896
5736 5734 5733 5731 5730 5730 5729 5729 5730 5730 5731 5732 5733 5735 5736 5737 5737 5738 5739 5741 5743 5745 5746 5746 5747 5748 5750 5752 5754 5756 5758 5758 5756 5756 5759 5762 5767 5771 5773 5776 5777 5779 5782 5786 5789 5792 5793 5795 5797 5800 5805 5808 5811 5813 5815 5815 5816 5818 5822 5825 5827 5831 5834 5837 5840 5842 5843 5845 5848 5852 5856 5859 5864 5868 5870 5872 5873 5874 5875 5877 5879 5881 5883 5884 5886 5889 5892 5894
5736 5735 5733 5731 5730 5729 5729 5729 5729 5730 5731 5732 5733 5734 5735 5737 5738 5739 5740 5742 5743 5744 5744 5745 5747 5747 5747 5748 5750 5751 5753 5754 5753 5754 5757 5761 5765 5769 5771 5773 5774 5776 5779 5782 5785 5788 5790 5792 5794 5798 5801 5803 5806 5809 5809 5808 5810 5814 5818 5820 5822 5826 5829 5831 5834 5837 5839 5840 5844 5850 5854 5857 5862 5864 5866 5867 5869 5871 5872 5874 5876 5878 5880 5881 5883 5886 5888 5891
5736 5735 5734 5732 5731 5730 5729 5729 5730 5730 5731 5732 5733 5734 5735 5737 5738 5739 5740 5742 5742 5743 5743 5745 5746 5746 5746 5747 5748 5749 5750 5751 5751 5752 5756 5760 5763 5765 5767 5769 5771 5773 5777 5780 5783 5785 5787 5789 5792 5795 5797 5798 5802 5805 5805 5805 5809 5812 5813 5814 5817 5822 5824 5825 5829 5832 5834 5837 5841 5847 5853 5856 5857 5857 5858 5858 5859 5860 5862 5865 5869 5873 5876 5878 5880 5882 5885 5887
5737 5736 5735 5734 5732 5731 5730 5730 5730 5731 5732 5732 5733 5735 5736 5737 5737 5738 5740 5741 5741 5741 5742 5744 5744 5745 5747 5748 5748 5749 5748 5749 5750 5753 5756 5759 5760 5761 5763 5765 5767 5771 5774 5777 5779 5782 5784 5786 5789 5792 5793 5794 5798 5801 5802 5803 5807 5809 5809 5810 5812 5815 5817 5819 5824 5828 5831 5834 5838 5844 5850 5850 5848 5850 5852 5853 5852 5853 5855 5858 5862 5867 5871 5875 5877 5879 5881 5884
5738 5737 5736 5735 5734 5733 5732 5732 5732 5732 5732 5733 5734 5735 5736 5736 5737 5738 5739 5740 5739 5740 5742 5743 5743 5745 5746 5746 5746 5747 5747 5749 5751 5753 5755 5757 5757 5759 5761 5763 5765 5769 5772 5774 5776 5779 5781 5783 5786 5789 5790 5791 5794 5797 5798 5800 5804 5805 5804 5805 5807 5811 5814 5817 5822 5824 5827 5831 5834 5840 5846 5843 5843 5848 5849 5848 5849 5850 5852 5855 5859 5863 5867 5871 5874 5877 5879 5881
5739 5739 5738 5737 5736 5735 5734 5734 5734 5734 5734 5734 5735 5735 5736 5736 5736 5737 5738 5739 5739 5740 5741 5741 5742 5743 5745 5745 5745 5745 5746 5749 5752 5752 5753 5754 5755 5756 5759 5762 5764 5768 5770 5771 5773 5776 5778 5781 5784 5786 5788 5790 5791 5792 5794 5798 5801 5800 5799 5801 5804 5808 5813 5817 5819 5820 5823 5826 5829 5835 5840 5838 5840 5845 5844 5844 5846 5848 5850 5853 5857 5860 5863 5867 5871 5874 5876 5878
5741 5740 5739 5739 5738 5736 5736 5736 5736 5736 5736 5736 5736 5736 5736 5736 5737 5737 5738 5738 5739 5739 5740 5740 5741 5742 5743 5744 5744 5744 5746 5749 5750 5751 5752 5752 5753 5754 5757 5760 5763 5765 5767 5769 5770 5773 5775 5778 5781 5783 5785 5788 5789 5789 5791 5795 5796 5796 5798 5800 5803 5806 5810 5813 5814 5815 5818 5820 5823 5829 5833 5834 5837 5840 5840 5842 5844 5844 5846 5850 5852 5855 5858 5861 5866 5870 5874 5876
5743 5742 5741 5740 5739 5738 5738 5738 5738 5737 5737 5737 5736 5736 5736 5737 5737 5736 5737 5737 5737 5738 5739 5741 5742 5742 5743 5743 5743 5744 5746 5748 5748 5749 5750 5751 5752 5753 5754 5756 5759 5762 5764 5766 5768 5770 5772 5775 5778 5780 5783 5786 5787 5787 5788 5791 5791 5793 5796 5799 5801 5803 5805 5807 5809 5810 5812 5815 5818 5823 5826 5830 5833 5835 5836 5839 5840 5840 5843 5846 5849 5852 5854 5856 5860 5865 5870 5874
5744 5743 5742 5742 5741 5740 5739 5739 5738 5738 5738 5737 5737 5736 5736 5737 5737 5736 5736 5736 5737 5737 5738 5739 5740 5740 5741 5742 5742 5743 5745 5746 5746 5747 5748 5749 5750 5751 5752 5753 5756 5759 5761 5763 5765 5766 5768 5771 5775 5778 5780 5783 5784 5784 5785 5787 5788 5790 5793 5795 5797 5798 5800 5802 5805 5807 5808 5810 5813 5817 5821 5825 5829 5831 5833 5835 5837 5838 5839 5842 5846 5849 5851 5853 5856 5860 5865 5869
5746 5745 5744 5743 5742 5742 5741 5740 5739 5738 5737 5737 5737 5736 5736 5737 5737 5736 5736 5736 5736 5736 5737 5738 5739 5738 5738 5740 5742 5743 5743 5744 5744 5745 5746 5747 5748 5749 5749 5751 5753 5755 5757 5759 5761 5762 5763 5766 5770 5773 5775 5778 5779 5779 5780 5782 5784 5786 5788 5790 5792 5794 5797 5799 5802 5803 5805 5806 5809 5812 5817 5821 5825 5828 5830 5831 5833 5835 5836 5839 5843 5846 5848 5851 5853 5856 5859 5862
5747 5746 5745 5744 5743 5742 5741 5740 5739 5738 5737 5737 5737 5736 5736 5736 5736 5736 5735 5735 5735 5736 5736 5737 5737 5737 5737 5738 5740 5741 5741 5742 5742 5743 5743 5744 5745 5745 5746 5747 5750 5751 5754 5756 5757 5758 5759 5761 5764 5767 5770 5771 5773 5774 5775 5777 5780 5782 5784 5786 5789 5791 5794 5796 5797 5799 5801 5803 5806 5809 5814 5818 5820 5821 5824 5827 5829 5832 5833 5835 5839 5842 5846 5848 5850 5852 5854 5857
5748 5747 5746 5745 5744 5743 5742 5741 5740 5738 5737 5737 5736 5736 5735 5735 5735 5735 5734 5734 5734 5735 5735 5735 5736 5736 5736 5736 5737 5738 5739 5740 5740 5740 5740 5741 5741 5742 5742 5744 5746 5748 5749 5751 5752 5754 5756 5758 5760 5762 5764 5766 5768 5769 5770 5772 5775 5777 5779 5782 5784 5786 5788 5791 5793 5795 5796 5800 5803 5806 5810 5813 5813 5814 5819 5823 5826 5829 5830 5832 5834 5837 5841 5844 5846 5848 5850 5854
5749 5748 5746 5745 5744 5743 5741 5740 5739 5738 5738 5737 5736 5735 5734 5734 5733 5733 5733 5732 5732 5733 5733 5733 5733 5733 5734 5734 5734 5735 5736 5737 5737 5737 5738 5738 5738 5738 5739 5740 5742 5743 5745 5746 5748 5750 5752 5753 5756 5758 5760 5762 5763 5764 5766 5767 5769 5771 5774 5777 5779 5781 5784 5786 5788 5790 5791 5795 5800 5803 5806 5807 5807 5810 5816 5821 5823 5825 5827 5828 5829 5832 5836 5840 5842 5844 5847 5850
5751 5749 5748 5746 5744 5743 5741 5740 5739 5738 5737 5736 5735 5734 5733 5733 5732 5731 5731 5730 5730 5730 5730 5730 5730 5731 5731 5731 5732 5732 5732 5733 5734 5734 5734 5734 5734 5735 5735 5736 5737 5739 5740 5741 5743 5744 5746 5748 5750 5753 5755 5756 5757 5758 5760 5761 5763 5765 5768 5771 5773 5776 5779 5781 5784 5785 5786 5790 5795 5798 5801 5803 5803 5806 5812 5816 5818 5820 5822 5824 5826 5828 5830 5834 5837 5840 5842 5845
5752 5750 5749 5747 5745 5743 5742 5741 5739 5738 5737 5736 5734 5733 5732 5731 5730 5729 5729 5728 5727 5727 5727 5727 5727 5727 5727 5728 5728 5728 5728 5729 5730 5730 5730 5730 5731 5731 5731 5732 5733 5734 5735 5737 5737 5738 5740 5741 5744 5747 5748 5749 5749 5750 5752 5755 5758 5761 5764 5766 5769 5772 5774 5777 5779 5779 5779 5783 5788 5792 5797 5801 5801 5803 5807 5810 5813 5815 5817 5821 5823 5823 5823 5827 5832 5835 5837 5840
5753 5751 5750 5747 5746 5744 5743 5742 5740 5738 5737 5736 5734 5733 5732 5730 5729 5728 5727 5726 5725 5724 5724 5724 5724 5724 5724 5724 5724 5724 5725 5725 5726 5726 5726 5727 5727 5727 5728 5729 5729 5730 5731 5732 5733 5733 5734 5735 5738 5740 5741 5742 5741 5741 5745 5749 5752 5757 5760 5761 5762 5764 5766 5769 5770 5770 5773 5777 5782 5788 5794 5797 5798 5800 5802 5806 5808 5810 5812 5815 5819 5819 5819 5822 5826 5829 5831 5833
5754 5752 5750 5748 5746 5745 5744 5742 5740 5739 5737 5736 5734 5733 5731 5730 5728 5726 5725 5724 5723 5722 5722 5721 5721 5721 5721 5721 5721 5721 5721 5722 5722 5722 5723 5723 5723 5724 5724 5725 5725 5726 5726 5727 5728 5728 5729 5730 5732 5733 5735 5735 5733 5734 5737 5739 5746 5754 5756 5753 5752 5754 5758 5761 5761 5762 5766 5771 5776 5781 5787 5792 5794 5796 5798 5801 5803 5805 5807 5810 5813 5815 5816 5818 5822 5825 5827 5828